Powrót do katalogu

STARLINK-3060

AktywnyŁącznośćVLEO
NORAD 49155·PAYLOAD·🇺🇸 United States

Wystrzelony Sep 14, 2021 z Vandenberg Space Force Base

Loading…

Następne Przeloty (najbliższe 24 godziny)

TLE

ŚwieżeSource: CelesTrak SupGP

Epoka: Sep 14, 2026, 22:08 UTC

1 49155C 21082AB  26257.92270833 -.00014387  00000+0 -12058-2 0  2572
2 49155  70.0003 137.3256 0002818 271.9819 239.8929 14.98335959    18

Śledź STARLINK-3060 w czasie rzeczywistym z AllMySat

Download on the App Store